Douglas, WY

5:07 PM MDT on August 31, 2016 (GMT -0600)
Converse County

Weather History for KDGW - October, 2011

Change the Weather History Date:

Thursday, October 20, 2011

  Actual Average Record
Temperature  
Mean Temperature 48 °F 44 °F  
Max Temperature 66 °F 60 °F 79 °F (2014)
Min Temperature 30 °F 29 °F 23 °F (2002)
Degree Days  
Heating Degree Days 17 21  
Month to date heating degree days 276 349  
Since 1 July heating degree days 435 618  
Cooling Degree Days 0 0  
Month to date cooling degree days 0 0  
Year to date cooling degree days 641 486  
Moisture  
Dew Point 29 °F    
Average Humidity 55    
Maximum Humidity 85    
Minimum Humidity 24    
Precipitation  
Precipitation 0.00 in 0.03 in 0.39 in (2007)
Month to date precipitation 1.63 0.81  
Year to date precipitation 12.66 12.09  
Sea Level Pressure  
Sea Level Pressure 29.98 in    
Wind  
Wind Speed 7 mph (NW)    
Max Wind Speed 16 mph    
Max Gust Speed 20 mph    
Visibility 10 miles    
Events      
T = Trace of Precipitation, MM = Missing Value Source: NWS Daily Summary

Daily Weather History Graph

Daily Weather History Graph

Search for Another Location

Airport or City:

Trip Planner

Search our weather history database for the weather conditions in past years. The results will help you decide how hot, cold, wet, or windy it might be!

Date:

Astronomy

Oct. 20, 2011 Rise Set
Actual Time 7:20 AM MDT 6:11 PM MDT
Civil Twilight 6:51 AM MDT 6:40 PM MDT
Nautical Twilight 6:18 AM MDT 7:12 PM MDT
Astronomical Twilight 5:46 AM MDT 7:45 PM MDT
Moon No Moon Rise 2:31 PM MDT (10/20)
Length of Visible Light 11h 48m
Length of Day
10h 50m
Last Quarter, 43% of the Moon is Illuminated
Oct 20
Last Quarter
Oct 26
New
Nov 2
First Quarter
Nov 10
Full
Nov 18
Last Quarter

Hourly Weather History & Observations

Time (MDT) Temp. Windchill Dew Point Humidity Pressure Visibility Wind Dir Wind Speed Gust Speed Precip Events Conditions
12:53 AM 41.0 °F 35.8 °F 26.1 °F 55% 29.88 in 10.0 mi SE 8.1 mph - N/A   Clear
1:53 AM 36.0 °F 31.1 °F 27.0 °F 70% 29.90 in 10.0 mi SSE 5.8 mph - N/A   Clear
2:53 AM 34.0 °F 28.0 °F 28.0 °F 79% 29.90 in 10.0 mi West 6.9 mph - N/A   Clear
3:53 AM 34.0 °F 28.0 °F 28.9 °F 82% 29.90 in 10.0 mi North 6.9 mph - N/A   Clear
4:53 AM 32.0 °F 27.5 °F 28.9 °F 88% 29.93 in 10.0 mi NW 4.6 mph - N/A   Clear
5:53 AM 32.0 °F 26.4 °F 28.0 °F 85% 29.97 in 10.0 mi NNW 5.8 mph - N/A   Clear
6:53 AM 35.1 °F 30.1 °F 30.0 °F 82% 30.00 in 10.0 mi NNW 5.8 mph - N/A   Clear
7:53 AM 39.9 °F 33.4 °F 30.0 °F 68% 30.03 in 10.0 mi NW 10.4 mph - N/A   Clear
8:53 AM 46.9 °F - 30.9 °F 54% 30.04 in 10.0 mi NW 8.1 mph - N/A   Clear
9:53 AM 55.0 °F - 30.0 °F 38% 30.02 in 10.0 mi NW 8.1 mph - N/A   Clear
10:53 AM 57.9 °F - 28.9 °F 33% 30.00 in 10.0 mi NW 10.4 mph - N/A   Clear
11:53 AM 61.0 °F - 30.0 °F 31% 29.99 in 10.0 mi WNW 11.5 mph - N/A   Clear
12:53 PM 64.0 °F - 30.9 °F 29% 29.97 in 10.0 mi NW 10.4 mph - N/A   Clear
1:53 PM 64.0 °F - 28.9 °F 27% 29.98 in 10.0 mi Variable 6.9 mph - N/A   Clear
2:53 PM 64.0 °F - 28.0 °F 26% 29.97 in 10.0 mi Variable 3.5 mph - N/A   Clear
3:53 PM 64.9 °F - 27.0 °F 24% 29.96 in 10.0 mi WNW 8.1 mph - N/A   Clear
4:53 PM 64.0 °F - 26.1 °F 24% 29.97 in 10.0 mi West 13.8 mph - N/A   Clear
6:53 PM 52.0 °F - 28.0 °F 40% 30.02 in 10.0 mi SSW 5.8 mph - N/A   Clear
7:53 PM 45.0 °F - 30.0 °F 56% 30.04 in 10.0 mi Calm Calm - N/A   Clear
8:53 PM 42.1 °F 40.2 °F 30.0 °F 62% 30.04 in 10.0 mi North 3.5 mph - N/A   Clear
9:53 PM 39.0 °F - 30.9 °F 73% 30.04 in 10.0 mi Calm Calm - N/A   Clear
10:53 PM 39.9 °F 37.8 °F 30.9 °F 70% 30.04 in 10.0 mi NNW 3.5 mph - N/A   Clear
11:53 PM 39.9 °F 34.5 °F 30.0 °F 68% 30.04 in 10.0 mi NW 8.1 mph - N/A   Clear